GFSNE_850_thetae_060.txt.gz
Theta_e
294 294 294 295 295 295 296 296 296 297 297 298 300 301 301 302 301 302 300 302 306 308 313 313 314 313 313 316 316 318 320 319 319 318 316 316 317 317
294 294 294 294 295 295 296 296 295 295 297 297 299 300 300 301 301 301 301 304 307 307 311 313 313 314 314 312 314 318 317 318 318 318 318 317 318 317
294 294 294 294 294 295 295 295 295 295 296 297 299 299 300 300 300 300 301 303 306 307 311 313 313 313 315 313 313 316 317 318 318 317 317 317 317 317
294 294 294 294 294 294 295 295 295 295 295 296 297 298 299 300 300 300 300 303 304 305 306 313 313 313 313 314 312 313 316 318 317 317 316 316 317 317
294 294 294 294 294 294 294 294 295 295 295 295 296 297 298 300 300 300 303 303 303 305 306 309 313 313 313 313 313 313 314 319 318 317 316 316 316 316
295 295 295 295 295 295 295 296 295 295 296 295 297 298 298 298 299 301 301 302 302 304 306 309 313 313 313 313 313 312 311 316 318 317 317 316 315 317
297 296 296 296 296 296 296 296 296 297 296 296 295 297 297 298 299 301 302 302 301 306 306 309 310 314 313 312 312 312 311 316 318 315 314 317 316 316
299 298 298 297 297 298 299 299 300 298 299 297 297 297 297 298 299 301 302 302 303 305 306 308 309 311 313 313 312 311 309 311 313 314 310 312 314 315
300 300 298 297 297 297 297 297 298 299 299 300 298 298 298 298 300 301 303 303 304 305 306 309 311 307 313 312 311 311 310 308 309 311 310 307 309 309
299 300 299 298 297 297 297 296 295 296 296 297 298 298 298 299 299 301 302 303 306 306 307 309 312 310 308 309 312 311 311 310 308 310 309 308 308 305
300 299 299 297 297 297 296 296 296 295 296 297 298 297 298 300 300 300 303 302 305 305 306 307 311 310 309 311 311 311 311 310 308 306 307 307 305 304
299 300 299 298 297 296 297 296 296 296 297 298 299 299 299 300 301 302 302 300 305 305 306 307 309 309 308 310 311 311 310 310 308 306 305 304 304 304
301 300 299 298 297 297 298 297 296 297 297 299 298 299 300 301 303 303 302 303 305 305 305 305 306 307 306 307 308 310 309 308 308 306 304 304 304 303
303 300 298 296 295 297 297 298 299 298 299 298 299 299 300 301 302 303 303 304 304 304 304 305 305 307 305 307 308 307 308 308 308 306 304 305 305 304
300 299 296 295 296 297 298 299 299 300 299 299 299 299 300 301 301 302 303 304 304 302 304 306 306 308 307 307 307 307 307 306 307 306 306 305 304 303
298 297 296 297 297 297 298 298 299 299 300 299 299 299 299 302 303 303 304 304 304 303 303 305 306 307 307 307 306 307 308 306 305 304 303 303 304 304
298 298 298 297 297 297 298 298 298 300 299 300 300 299 299 302 301 301 300 301 302 302 302 304 305 305 306 307 306 306 307 307 304 304 304 304 303 303
296 297 297 297 297 297 298 297 298 299 300 300 300 300 301 301 300 299 298 298 299 302 303 303 305 305 305 306 306 306 306 306 305 305 304 304 303 303
295 295 296 296 296 297 297 297 297 298 300 299 299 299 299 299 299 298 298 299 298 300 303 304 305 305 305 305 305 306 305 306 306 307 304 304 304 304
294 295 295 295 296 296 296 296 296 297 299 300 300 299 299 299 299 299 298 301 299 300 301 303 304 304 305 306 306 305 306 304 305 305 305 304 304 304
292 293 294 295 296 296 296 296 296 296 296 297 297 297 299 299 299 299 300 302 300 301 303 304 304 304 304 305 305 305 305 305 305 304 303 303 301 300
291 292 293 293 294 295 296 297 297 297 297 297 297 297 298 300 300 300 300 301 304 303 304 303 303 304 305 305 304 304 305 305 304 304 304 304 304 304
291 291 292 293 294 294 296 297 297 297 297 298 297 298 297 299 300 301 300 301 302 303 303 304 303 304 305 304 304 304 305 305 305 304 305 305 305 305

GFSNE_850_thetae_063.txt.gz
Theta_e
294 294 294 295 295 295 295 296 296 297 297 298 298 298 299 300 301 302 303 303 301 301 304 309 313 316 317 314 314 321 321 320 322 324 325 325 324 324
294 294 294 295 295 295 295 295 296 297 297 297 297 298 298 299 301 301 303 301 301 301 302 306 309 313 315 315 313 316 320 318 319 320 323 323 322 322
294 294 294 294 295 295 295 295 295 296 296 296 297 297 298 299 300 301 302 302 301 301 303 307 307 312 314 315 314 313 315 317 319 319 317 316 317 318
294 294 294 294 294 294 294 295 295 295 295 296 296 297 297 298 299 300 300 300 301 301 304 307 307 310 313 314 314 313 314 316 318 318 317 317 317 316
295 295 295 295 295 294 294 294 294 294 295 295 295 296 297 297 298 299 300 299 300 300 301 305 306 311 312 314 314 314 314 316 318 317 317 317 317 316
297 297 297 297 296 295 295 295 295 295 295 296 296 296 296 297 297 299 299 300 300 301 303 303 304 307 313 313 314 315 314 314 318 318 317 317 316 317
298 298 298 299 299 297 296 295 296 295 295 295 296 296 297 297 298 299 299 300 301 300 303 302 304 306 311 313 313 314 314 314 315 317 318 316 316 316
300 300 299 299 300 299 298 299 299 297 297 297 297 296 297 297 297 297 299 300 302 302 301 303 304 307 311 313 313 313 314 313 313 317 318 317 316 315
300 300 300 299 299 299 299 298 299 300 300 299 298 299 297 298 298 298 299 300 302 303 302 302 305 306 309 314 313 313 313 313 313 315 318 317 316 315
299 299 299 299 299 299 298 297 297 297 297 297 298 297 298 299 298 298 299 300 301 302 302 303 305 306 308 311 313 312 312 311 311 314 316 315 315 316
300 300 300 300 299 300 298 298 297 297 296 295 296 296 296 297 297 299 300 301 301 303 304 305 306 307 309 311 311 313 312 311 310 314 314 313 310 311
299 301 302 301 300 299 298 298 298 296 296 296 296 297 299 299 299 299 300 300 301 301 304 306 307 308 309 308 308 311 312 310 309 309 312 313 309 307
300 301 302 300 299 299 298 297 296 296 296 296 297 297 298 300 299 299 301 301 301 301 305 307 307 307 305 308 308 310 311 311 310 309 311 310 308 306
299 299 299 298 298 297 297 297 298 298 298 298 298 299 299 299 299 300 301 301 302 303 305 306 307 307 307 307 308 310 311 311 310 309 309 309 306 304
298 297 296 296 296 297 297 298 298 299 299 298 299 298 299 300 302 302 302 301 301 304 303 305 306 307 307 307 307 309 309 311 310 309 308 307 304 304
298 297 297 297 297 297 297 297 298 299 299 299 298 299 299 300 302 301 300 301 303 304 305 306 306 306 306 307 306 308 309 309 309 309 307 306 305 304
296 297 298 297 297 297 297 297 298 299 299 300 299 299 299 301 302 302 301 303 303 304 306 306 306 307 306 306 307 306 308 309 308 307 307 306 305 304
295 296 296 297 297 297 298 297 298 299 300 299 298 299 299 301 302 303 303 303 303 303 303 305 306 306 305 305 306 306 306 307 307 308 307 306 306 305
294 295 295 296 295 297 297 297 297 299 299 299 300 299 300 300 301 300 300 300 302 302 302 304 305 305 306 306 305 306 307 305 304 304 303 303 303 303
292 292 293 294 295 295 296 296 296 298 299 300 300 301 300 299 299 298 298 298 299 303 303 304 305 305 305 305 306 306 306 305 304 304 304 304 303 303
291 291 292 293 294 294 294 296 296 296 298 299 299 299 299 299 299 299 299 299 299 301 302 303 304 305 304 304 305 305 304 305 305 305 304 304 304 303
290 291 291 292 293 294 295 295 297 296 296 297 298 298 298 299 299 298 299 300 300 301 300 302 304 304 305 305 305 305 305 303 303 305 305 304 304 304
290 290 291 292 292 293 294 296 296 296 297 296 297 297 297 300 299 299 299 299 300 301 301 303 303 304 304 305 305 305 304 304 303 303 304 305 304 302

GFSNE_850_thetae_069.txt.gz
Theta_e
298 298 298 299 299 299 299 299 299 299 300 300 300 300 300 301 301 301 301 302 302 302 303 302 303 302 304 310 315 322 325 327 326 322 322 326 327 329
298 298 298 298 298 298 298 297 297 297 297 297 298 299 300 300 300 300 300 301 302 303 304 304 305 302 302 304 312 317 323 324 326 325 320 324 326 327
298 297 297 297 297 296 296 296 296 295 295 296 296 297 298 299 299 300 300 300 301 302 303 305 305 304 302 302 306 312 320 320 323 326 324 322 325 328
297 297 297 296 296 296 296 296 296 296 296 296 296 296 296 297 298 299 300 300 301 302 302 304 304 303 301 301 303 309 313 321 319 323 323 324 325 327
297 297 297 297 297 297 297 297 297 297 297 297 297 297 296 296 296 297 298 299 300 300 302 303 303 303 302 301 301 304 311 318 319 317 322 322 323 324
297 297 298 298 298 298 298 298 298 297 297 298 297 297 297 296 296 296 297 298 299 300 300 301 302 302 302 300 301 303 307 313 319 316 318 321 320 320
298 298 298 299 299 299 299 299 298 298 298 298 298 297 297 297 297 297 297 298 299 300 301 301 302 302 302 302 301 304 305 311 317 316 315 318 319 318
298 299 299 299 299 300 301 301 302 302 299 299 298 298 299 298 298 297 298 299 300 300 300 302 302 303 305 303 302 304 305 308 314 317 315 317 318 319
298 298 298 298 299 298 299 300 300 301 302 303 300 300 299 299 298 298 298 299 299 299 300 301 302 302 303 307 305 306 304 306 313 316 315 315 317 319
298 298 298 298 298 299 300 300 300 300 300 301 300 300 299 299 298 298 299 299 299 299 300 301 301 303 304 304 307 307 307 305 311 314 315 315 316 318
297 297 297 297 299 299 300 303 302 302 301 300 300 300 300 299 299 299 299 299 299 299 299 300 301 302 304 305 306 307 308 308 310 313 315 315 316 317
296 296 295 298 298 299 301 301 304 302 300 300 301 298 299 299 298 298 298 299 299 300 300 300 301 301 304 305 305 305 306 308 311 313 314 315 316 318
295 295 295 297 298 299 299 301 300 300 299 299 299 298 298 298 298 299 299 299 298 299 300 301 301 302 304 305 303 304 305 306 312 313 314 315 316 317
295 294 294 297 298 298 298 299 298 299 299 299 298 298 298 298 298 298 298 298 298 298 299 300 302 303 304 304 306 305 306 310 312 313 314 314 315 317
293 293 294 297 298 298 299 297 298 299 298 299 299 299 298 298 298 299 298 299 299 299 299 301 301 301 304 305 306 308 308 312 313 313 314 313 314 317
292 293 295 297 298 299 299 299 298 298 298 299 298 299 300 299 299 299 299 299 300 300 301 301 301 301 302 306 306 307 311 311 313 313 313 313 313 315
292 292 295 296 297 298 297 297 298 297 298 300 300 300 299 299 299 299 299 301 300 300 301 301 301 301 302 306 306 306 306 308 313 312 312 312 312 313
291 291 292 294 295 295 296 298 297 297 298 300 299 300 300 300 301 301 300 301 302 302 302 302 302 301 302 307 306 306 307 308 310 311 312 312 314 314
290 291 291 292 293 294 295 296 297 298 299 300 301 300 300 301 301 300 300 300 301 301 302 304 304 306 306 306 305 306 309 309 310 311 312 312 313 312
289 290 291 291 292 293 293 295 296 298 298 299 299 299 300 300 301 300 301 304 304 303 305 303 305 306 306 305 305 304 306 309 311 311 310 310 311 311
289 289 289 290 291 292 293 294 295 298 299 299 300 300 301 301 301 301 302 303 303 304 305 306 305 304 305 305 305 304 308 311 311 310 311 311 311 310
289 288 288 289 290 291 293 294 295 298 300 301 300 301 301 301 301 301 302 302 302 304 304 305 304 304 305 304 303 304 305 307 309 310 310 310 309 308
288 288 288 288 290 290 292 294 294 296 299 300 301 301 301 301 301 301 301 300 301 303 303 305 305 306 304 303 304 303 305 306 305 307 307 307 307 307

GFSNE_850_thetae_075.txt.gz
Theta_e
295 295 296 297 297 297 298 298 298 298 298 298 298 298 298 298 298 299 300 300 301 301 303 303 303 304 305 305 307 307 303 307 318 324 326 325 318 324
295 296 296 297 297 298 297 297 297 297 297 297 297 297 297 297 297 297 297 299 300 300 301 302 301 301 301 303 306 306 304 303 308 318 319 326 323 322
295 296 296 297 297 297 297 297 297 296 296 296 296 296 297 297 297 297 297 297 298 299 300 300 301 301 300 303 304 303 302 302 303 308 315 321 328 321
296 296 296 296 296 296 297 297 296 296 297 296 297 297 297 297 297 297 298 298 297 297 298 299 300 300 302 302 302 304 304 302 301 303 309 318 320 323
296 295 295 296 296 297 297 297 297 297 297 297 297 297 297 297 297 297 298 298 298 298 297 298 299 299 301 302 303 303 305 305 301 301 304 312 323 322
295 295 296 296 297 297 297 297 297 297 297 297 297 297 297 298 298 297 298 299 299 299 298 296 298 299 300 301 302 303 303 303 302 301 302 310 319 323
296 297 297 296 297 298 300 300 300 300 300 299 299 298 298 298 298 300 299 299 300 300 299 297 296 298 299 299 301 302 304 304 303 301 301 305 315 322
297 297 298 298 297 297 298 299 299 300 299 300 300 299 298 299 300 299 299 299 299 299 300 297 297 297 298 300 300 301 301 302 302 301 300 302 310 322
296 296 296 296 298 297 296 297 297 297 297 298 299 300 299 299 300 299 299 300 299 299 299 298 299 299 299 300 301 301 301 302 304 301 300 301 308 318
296 296 296 296 295 296 296 297 297 297 297 298 300 300 300 300 300 301 300 299 299 299 299 298 298 299 300 299 300 302 302 304 305 302 300 301 306 315
296 296 295 295 294 295 296 297 297 296 298 299 299 300 301 302 301 299 300 299 299 299 299 298 298 298 298 299 299 300 301 302 303 305 300 301 305 314
294 294 293 294 295 295 296 296 296 297 298 299 299 300 301 303 301 300 300 299 299 298 298 298 298 299 299 298 299 299 300 300 302 305 305 302 306 313
295 293 292 292 293 295 296 296 295 298 299 298 299 298 300 300 299 301 300 300 298 298 299 299 299 299 299 300 303 301 300 301 304 306 305 307 305 313
293 292 292 293 293 293 295 296 298 299 298 298 298 298 298 297 299 298 299 299 300 298 299 298 300 300 300 300 300 301 303 302 304 306 306 307 308 312
293 292 292 292 291 294 297 298 299 298 298 297 298 298 298 298 298 297 297 298 298 298 298 298 298 299 298 299 301 301 301 304 304 303 306 306 306 311
292 292 292 291 291 294 296 297 297 297 297 296 297 297 297 298 299 298 299 298 298 298 298 298 298 298 298 298 300 301 303 304 304 303 303 306 309 313
292 291 290 289 290 292 294 295 296 296 296 297 297 297 298 299 299 299 299 299 298 298 298 298 299 299 299 298 300 301 301 304 305 303 304 305 311 312
290 290 289 289 289 290 292 292 293 295 295 297 298 298 299 299 299 299 299 299 298 298 298 297 298 299 299 299 299 299 300 304 305 305 305 311 311 312
289 289 289 289 288 289 290 292 292 293 295 297 298 299 300 300 299 300 299 299 298 297 298 298 298 300 300 301 301 300 301 304 306 306 308 310 313 312
289 289 289 289 288 288 289 291 292 293 296 297 298 299 299 300 299 299 299 299 299 299 298 300 299 300 301 301 300 300 301 304 306 307 309 311 312 314
289 288 288 288 288 288 289 290 291 293 296 297 299 300 299 300 300 300 300 300 299 300 300 300 300 300 300 300 303 303 301 304 307 307 310 312 313 314
288 288 288 287 287 287 288 289 291 294 297 299 300 300 301 301 300 300 300 300 300 301 301 301 300 301 301 301 303 304 305 305 306 309 310 310 313 313
288 288 288 288 288 287 288 290 292 295 297 298 300 300 300 300 300 301 302 302 303 304 303 303 303 302 303 303 303 304 304 305 308 307 309 310 310 312